TimeEST,TemperatureF,Dew PointF,Humidity,Sea Level PressureIn,VisibilityMPH,Wind Direction,Wind SpeedMPH,Gust SpeedMPH,PrecipitationIn,Events,Conditions,WindDirDegrees,DateUTC
12:53 AM,69.1,64.0,84,30.06,10.0,NNW,9.2,-,N/A,,Mostly Cloudy,340,2012-11-16 05:53:00
1:53 AM,68.0,64.0,87,30.05,10.0,NNW,10.4,-,N/A,,Mostly Cloudy,340,2012-11-16 06:53:00
2:53 AM,68.0,64.0,87,30.06,10.0,North,11.5,-,N/A,,Overcast,350,2012-11-16 07:53:00
3:53 AM,66.9,63.0,87,30.05,10.0,NNW,9.2,-,N/A,,Overcast,340,2012-11-16 08:53:00
4:29 AM,66.2,62.6,88,30.05,10.0,NNW,8.1,-,N/A,,Overcast,340,2012-11-16 09:29:00
4:53 AM,66.9,63.0,87,30.05,10.0,NW,5.8,-,N/A,,Overcast,320,2012-11-16 09:53:00
5:53 AM,66.0,63.0,90,30.07,10.0,NNW,8.1,-,N/A,,Mostly Cloudy,330,2012-11-16 10:53:00
6:27 AM,66.2,62.6,88,30.08,7.0,NNW,9.2,-,N/A,,Overcast,340,2012-11-16 11:27:00
6:53 AM,64.9,63.0,93,30.07,7.0,North,8.1,-,N/A,,Overcast,350,2012-11-16 11:53:00
7:53 AM,66.0,63.0,90,30.09,7.0,North,8.1,-,N/A,,Overcast,350,2012-11-16 12:53:00
8:53 AM,69.1,64.0,84,30.10,10.0,North,6.9,-,N/A,,Partly Cloudy,10,2012-11-16 13:53:00
9:53 AM,71.1,64.0,78,30.11,10.0,NNW,9.2,-,N/A,,Overcast,330,2012-11-16 14:53:00
10:53 AM,72.0,64.0,76,30.09,10.0,NNW,8.1,-,N/A,,Overcast,330,2012-11-16 15:53:00
11:53 AM,75.0,64.9,71,30.07,10.0,NW,8.1,-,N/A,,Overcast,320,2012-11-16 16:53:00
12:53 PM,77.0,64.0,64,30.04,10.0,ENE,3.5,-,N/A,,Mostly Cloudy,60,2012-11-16 17:53:00
1:53 PM,78.1,64.0,62,30.04,10.0,East,6.9,-,N/A,,Mostly Cloudy,80,2012-11-16 18:53:00
2:53 PM,77.0,66.0,69,30.03,10.0,ENE,10.4,-,N/A,,Mostly Cloudy,70,2012-11-16 19:53:00
3:53 PM,77.0,64.9,66,30.02,10.0,ENE,8.1,-,N/A,,Mostly Cloudy,70,2012-11-16 20:53:00
4:53 PM,75.0,64.0,69,30.03,10.0,ENE,6.9,-,N/A,,Mostly Cloudy,60,2012-11-16 21:53:00
5:53 PM,75.0,64.9,71,30.03,10.0,NNE,8.1,-,N/A,,Mostly Cloudy,30,2012-11-16 22:53:00
6:53 PM,73.9,66.0,76,30.05,10.0,North,6.9,-,0.00,Rain,Light Rain,10,2012-11-16 23:53:00
7:53 PM,72.0,69.1,91,30.06,9.0,Calm,Calm,-,0.02,Rain,Light Rain,0,2012-11-17 00:53:00
8:13 PM,71.6,66.2,83,30.06,6.0,East,15.0,-,0.03,Rain,Rain,100,2012-11-17 01:13:00
8:16 PM,71.6,66.2,83,30.06,6.0,East,13.8,-,0.03,Rain,Light Rain,100,2012-11-17 01:16:00
8:53 PM,71.1,66.0,84,30.07,10.0,SE,3.5,-,0.08,,Mostly Cloudy,140,2012-11-17 01:53:00
9:53 PM,70.0,66.9,90,30.08,10.0,NNW,4.6,-,N/A,,Mostly Cloudy,340,2012-11-17 02:53:00
10:53 PM,70.0,66.0,87,30.06,10.0,NE,6.9,-,0.07,,Mostly Cloudy,50,2012-11-17 03:53:00
11:53 PM,68.0,66.0,93,30.04,10.0,NNW,4.6,-,N/A,,Partly Cloudy,340,2012-11-17 04:53:00